Tracking 19706 objects as of 15-Jun-2019
HD Live streaming from Space Station
objects crossing your sky now

DELTA 1 DEB

Track DELTA 1 DEB now!
10-day predictions


NORAD ID: 7026
Int'l Code: 1973-086S
Perigee: 1,320.7 km
Apogee: 1,522.8 km
Inclination: 102.1 °
Period: 114.1 minutes
Semi major axis: 7792 km
RCS: 0.0707 m2 (small)
Launch date: November 6, 1973
Source: United States (US)
Launch site: AIR FORCE WESTERN TEST RANGE (AFWTR)

Note: This is SATELLITE DEBRIS
aabbcc
Your satellite tracking list
Your tracking list is empty




NASA's NSSDC Master Catalog

Two Line Element Set (TLE):
1  7026U 73086S   19165.91547723 +.00000200 +00000-0 +13450-2 0  9996
2  7026 102.1260 148.4788 0129699 050.8368 004.7426 12.62028731091606
Source of the keplerian elements: AFSPC